Погода в Ахвенламби

Россия / Республика Карелия     63°23′59″N   33°12′01″E
темп.,
°C
ветер,
м/с
пор.,
м/с
влажн.,
%
обл.,
%
осадки,
мм/ч
давл.,
гПа
погр.,
м
19 января, вт
вт1900:00−10зюз3995100 0.0 1011264
03:00−11зюз3996100 0.0 1011251
06:00−10зюз399597 0.0 1010252
09:00−11зюз389695 0.1 1010183
12:00−9зюз389593 0.0 1010269
15:00−8зюз379596 0.1 1009248
18:00−10з249785 0.0 100960
21:00−12зсз229882 0.1 101025
20 января, ср
ср2000:00−12сз129889 0.1 101021
03:00−14ссз229888 0.1 101225
06:00−14с229895 0.1 101130
09:00−15с129496 0.1 101224
12:00−14с129390 0.0 101354
15:00−14ссв119495 0.0 101320
18:00−15св119595 0.0 101320
21:00−15св119697 0.1 101322
21 января, чт
чт2100:00−14всв229798 0.1 101276
03:00−14всв249897 0.3 1011121
06:00−13в489599 0.1 1009317
09:00−13всв5109499 0.3 1008447
12:00−15всв51095100 0.2 1008415
15:00−17всв51095100 0.8 1007408
18:00−19св51196100 0.2 1007419
21:00−19всв51097100 0.3 1008419
22 января, пт
пт2200:00−20всв51097100 0.1 1008416
03:00−20всв51097100 0.3 1008406
06:00−20всв51097100 0.6 1008402
09:00−20всв51197100 1.4 1007416
12:00−18в51097100 1.3 1007437
15:00−18всв51096100 3.3 1007459
18:00−18всв51096100 0.3 1007460
21:00−18всв5995100 0.4 1007479
23 января, сб
сб2300:00−18всв4895100 0.1 1007422
03:00−18св4896100 0.3 1007377
06:00−19всв4997100 0.1 1006360
09:00−18всв4896100 0.3 1006376
12:00−16в4896100 0.5 1005353
15:00−15в4896100 1.8 1004318
18:00−13в4895100 1.5 1003332
21:00−12в3796100 3.6 1000285